owner,sensor,date,latitude,longitude,vertical_datum,sea_water_temperature,qcFlag 
TABS,ioos:station:wmo:42049:1,2002-01-01T00:00:00Z,28.3507,-96.0058,-2.0,16.7,11111222 
TABS,ioos:station:wmo:42049:1,2002-01-01T00:30:00Z,28.3507,-96.0058,-2.0,16.75,11111222 
TABS,ioos:station:wmo:42049:1,2002-01-01T01:00:00Z,28.3507,-96.0058,-2.0,16.77,11111222 
TABS,ioos:station:wmo:42049:1,2002-01-01T01:30:00Z,28.3507,-96.0058,-2.0,16.63,11111222 
TABS,ioos:station:wmo:42049:1,2002-01-01T02:00:00Z,28.3507,-96.0058,-2.0,16.41,11111222 
TABS,ioos:station:wmo:42049:1,2002-01-01T02:30:00Z,28.3507,-96.0058,-2.0,16.32,11111222 
TABS,ioos:station:wmo:42049:1,2002-01-01T03:00:00Z,28.3507,-96.0058,-2.0,16.33,11111222 
TABS,ioos:station:wmo:42049:1,2002-01-01T03:30:00Z,28.3507,-96.0058,-2.0,16.36,11111222 
TABS,ioos:station:wmo:42049:1,2002-01-01T04:00:00Z,28.3507,-96.0058,-2.0,16.5,11111222 
TABS,ioos:station:wmo:42049:1,2002-01-01T04:30:00Z,28.3507,-96.0058,-2.0,16.63,11111222 
TABS,ioos:station:wmo:42049:1,2002-01-01T05:00:00Z,28.3507,-96.0058,-2.0,16.69,11111222 
TABS,ioos:station:wmo:42049:1,2002-01-01T05:30:00Z,28.3507,-96.0058,-2.0,16.7,11111222 
TABS,ioos:station:wmo:42049:1,2002-01-01T06:00:00Z,28.3507,-96.0058,-2.0,16.65,11111222 
TABS,ioos:station:wmo:42049:1,2002-01-01T06:30:00Z,28.3507,-96.0058,-2.0,16.7,11111222 
TABS,ioos:station:wmo:42049:1,2002-01-01T07:00:00Z,28.3507,-96.0058,-2.0,16.56,11111222 
TABS,ioos:station:wmo:42049:1,2002-01-01T07:30:00Z,28.3507,-96.0058,-2.0,16.56,11111222 
TABS,ioos:station:wmo:42049:1,2002-01-01T08:00:00Z,28.3507,-96.0058,-2.0,16.59,11111222 
TABS,ioos:station:wmo:42049:1,2002-01-01T08:30:00Z,28.3507,-96.0058,-2.0,16.67,11111222 
TABS,ioos:station:wmo:42049:1,2002-01-01T09:00:00Z,28.3507,-96.0058,-2.0,16.67,11111222 
TABS,ioos:station:wmo:42049:1,2002-01-01T09:30:00Z,28.3507,-96.0058,-2.0,16.44,11111222 
TABS,ioos:station:wmo:42049:1,2002-01-01T10:00:00Z,28.3507,-96.0058,-2.0,16.53,11111222 
TABS,ioos:station:wmo:42049:1,2002-01-01T10:30:00Z,28.3507,-96.0058,-2.0,16.6,11111222 
TABS,ioos:station:wmo:42049:1,2002-01-01T11:00:00Z,28.3507,-96.0058,-2.0,16.65,11111222 
TABS,ioos:station:wmo:42049:1,2002-01-01T11:30:00Z,28.3507,-96.0058,-2.0,16.56,11111222 
TABS,ioos:station:wmo:42049:1,2002-01-01T12:00:00Z,28.3507,-96.0058,-2.0,16.4,11111222 
TABS,ioos:station:wmo:42049:1,2002-01-01T12:30:00Z,28.3507,-96.0058,-2.0,16.15,11111222 
TABS,ioos:station:wmo:42049:1,2002-01-01T13:00:00Z,28.3507,-96.0058,-2.0,16.63,11111222 
TABS,ioos:station:wmo:42049:1,2002-01-01T13:30:00Z,28.3507,-96.0058,-2.0,16.83,11111222 
TABS,ioos:station:wmo:42049:1,2002-01-01T14:00:00Z,28.3507,-96.0058,-2.0,16.37,11111222 
TABS,ioos:station:wmo:42049:1,2002-01-01T14:30:00Z,28.3507,-96.0058,-2.0,16.31,11111222 
TABS,ioos:station:wmo:42049:1,2002-01-01T15:00:00Z,28.3507,-96.0058,-2.0,16.22,11111222 
TABS,ioos:station:wmo:42049:1,2002-01-01T15:30:00Z,28.3507,-96.0058,-2.0,16.26,11111222 
TABS,ioos:station:wmo:42049:1,2002-01-01T16:00:00Z,28.3507,-96.0058,-2.0,16.32,11111222 
TABS,ioos:station:wmo:42049:1,2002-01-01T16:30:00Z,28.3507,-96.0058,-2.0,16.26,11111222 
TABS,ioos:station:wmo:42049:1,2002-01-01T17:00:00Z,28.3507,-96.0058,-2.0,16.21,11111222 
TABS,ioos:station:wmo:42049:1,2002-01-01T17:30:00Z,28.3507,-96.0058,-2.0,16.28,11111222 
TABS,ioos:station:wmo:42049:1,2002-01-01T18:30:00Z,28.3507,-96.0058,-2.0,16.29,11111222 
TABS,ioos:station:wmo:42049:1,2002-01-01T19:00:00Z,28.3507,-96.0058,-2.0,16.27,11111222 
TABS,ioos:station:wmo:42049:1,2002-01-01T19:30:00Z,28.3507,-96.0058,-2.0,16.25,11111222 
TABS,ioos:station:wmo:42049:1,2002-01-01T20:00:00Z,28.3507,-96.0058,-2.0,16.22,11111222 
TABS,ioos:station:wmo:42049:1,2002-01-01T20:30:00Z,28.3507,-96.0058,-2.0,16.18,11111222 
TABS,ioos:station:wmo:42049:1,2002-01-01T21:00:00Z,28.3507,-96.0058,-2.0,16.22,11111222 
TABS,ioos:station:wmo:42049:1,2002-01-01T21:30:00Z,28.3507,-96.0058,-2.0,16.13,11111222 
TABS,ioos:station:wmo:42049:1,2002-01-01T22:00:00Z,28.3507,-96.0058,-2.0,16.15,11111222 
TABS,ioos:station:wmo:42049:1,2002-01-01T22:30:00Z,28.3507,-96.0058,-2.0,16.06,11111222 
TABS,ioos:station:wmo:42049:1,2002-01-01T23:00:00Z,28.3507,-96.0058,-2.0,15.97,11111222 
TABS,ioos:station:wmo:42049:1,2002-01-01T23:30:00Z,28.3507,-96.0058,-2.0,15.96,11111222 
TABS,ioos:station:wmo:42049:1,2002-01-02T00:00:00Z,28.3507,-96.0058,-2.0,15.94,11111222 
TABS,ioos:station:wmo:42049:1,2002-01-02T00:30:00Z,28.3507,-96.0058,-2.0,15.89,11111222 
TABS,ioos:station:wmo:42049:1,2002-01-02T01:00:00Z,28.3507,-96.0058,-2.0,15.88,11111222 
TABS,ioos:station:wmo:42049:1,2002-01-02T01:30:00Z,28.3507,-96.0058,-2.0,15.82,11111222 
TABS,ioos:station:wmo:42049:1,2002-01-02T02:00:00Z,28.3507,-96.0058,-2.0,15.89,11111222 
TABS,ioos:station:wmo:42049:1,2002-01-02T02:30:00Z,28.3507,-96.0058,-2.0,15.93,11111222 
TABS,ioos:station:wmo:42049:1,2002-01-02T03:00:00Z,28.3507,-96.0058,-2.0,15.92,11111222 
TABS,ioos:station:wmo:42049:1,2002-01-02T03:30:00Z,28.3507,-96.0058,-2.0,15.94,11111222 
TABS,ioos:station:wmo:42049:1,2002-01-02T04:00:00Z,28.3507,-96.0058,-2.0,15.89,11111222 
TABS,ioos:station:wmo:42049:1,2002-01-02T04:30:00Z,28.3507,-96.0058,-2.0,15.77,11111222 
TABS,ioos:station:wmo:42049:1,2002-01-02T05:00:00Z,28.3507,-96.0058,-2.0,15.69,11111222 
TABS,ioos:station:wmo:42049:1,2002-01-02T05:30:00Z,28.3507,-96.0058,-2.0,15.62,11111222 
TABS,ioos:station:wmo:42049:1,2002-01-02T06:00:00Z,28.3507,-96.0058,-2.0,15.57,11111222 
TABS,ioos:station:wmo:42049:1,2002-01-02T06:30:00Z,28.3507,-96.0058,-2.0,15.45,11111222 
TABS,ioos:station:wmo:42049:1,2002-01-02T07:00:00Z,28.3507,-96.0058,-2.0,15.37,11111222 
TABS,ioos:station:wmo:42049:1,2002-01-02T07:30:00Z,28.3507,-96.0058,-2.0,15.31,11111222 
TABS,ioos:station:wmo:42049:1,2002-01-02T08:00:00Z,28.3507,-96.0058,-2.0,15.31,11111222 
TABS,ioos:station:wmo:42049:1,2002-01-02T08:30:00Z,28.3507,-96.0058,-2.0,15.37,11111222 
TABS,ioos:station:wmo:42049:1,2002-01-02T09:00:00Z,28.3507,-96.0058,-2.0,15.47,11111222 
TABS,ioos:station:wmo:42049:1,2002-01-02T09:30:00Z,28.3507,-96.0058,-2.0,15.52,11111222 
TABS,ioos:station:wmo:42049:1,2002-01-02T10:00:00Z,28.3507,-96.0058,-2.0,15.67,11111222 
TABS,ioos:station:wmo:42049:1,2002-01-02T10:30:00Z,28.3507,-96.0058,-2.0,15.65,11111222 
TABS,ioos:station:wmo:42049:1,2002-01-02T11:00:00Z,28.3507,-96.0058,-2.0,15.78,11111222 
TABS,ioos:station:wmo:42049:1,2002-01-02T11:30:00Z,28.3507,-96.0058,-2.0,15.67,11111222 
TABS,ioos:station:wmo:42049:1,2002-01-02T12:00:00Z,28.3507,-96.0058,-2.0,15.58,11111222 
TABS,ioos:station:wmo:42049:1,2002-01-02T12:30:00Z,28.3507,-96.0058,-2.0,15.51,11111222 
TABS,ioos:station:wmo:42049:1,2002-01-02T13:00:00Z,28.3507,-96.0058,-2.0,15.5,11111222 
TABS,ioos:station:wmo:42049:1,2002-01-02T13:30:00Z,28.3507,-96.0058,-2.0,15.51,11111222 
TABS,ioos:station:wmo:42049:1,2002-01-02T14:00:00Z,28.3507,-96.0058,-2.0,15.51,11111222 
TABS,ioos:station:wmo:42049:1,2002-01-02T14:30:00Z,28.3507,-96.0058,-2.0,15.58,11111222 
TABS,ioos:station:wmo:42049:1,2002-01-02T15:00:00Z,28.3507,-96.0058,-2.0,15.63,11111222 
TABS,ioos:station:wmo:42049:1,2002-01-02T15:30:00Z,28.3507,-96.0058,-2.0,15.71,11111222 
TABS,ioos:station:wmo:42049:1,2002-01-02T16:00:00Z,28.3507,-96.0058,-2.0,15.86,11111222 
TABS,ioos:station:wmo:42049:1,2002-01-02T16:30:00Z,28.3507,-96.0058,-2.0,15.92,11111222 
TABS,ioos:station:wmo:42049:1,2002-01-02T17:00:00Z,28.3507,-96.0058,-2.0,16.01,11111222 
TABS,ioos:station:wmo:42049:1,2002-01-02T17:30:00Z,28.3507,-96.0058,-2.0,15.86,11111222 
TABS,ioos:station:wmo:42049:1,2002-01-02T18:30:00Z,28.3507,-96.0058,-2.0,15.68,11111222 
TABS,ioos:station:wmo:42049:1,2002-01-02T19:00:00Z,28.3507,-96.0058,-2.0,15.94,11111222 
TABS,ioos:station:wmo:42049:1,2002-01-02T19:30:00Z,28.3507,-96.0058,-2.0,15.88,11111222 
TABS,ioos:station:wmo:42049:1,2002-01-02T20:00:00Z,28.3507,-96.0058,-2.0,15.62,11111222 
TABS,ioos:station:wmo:42049:1,2002-01-02T20:30:00Z,28.3507,-96.0058,-2.0,15.43,11111222 
TABS,ioos:station:wmo:42049:1,2002-01-02T21:00:00Z,28.3507,-96.0058,-2.0,15.43,11111222 
TABS,ioos:station:wmo:42049:1,2002-01-02T21:30:00Z,28.3507,-96.0058,-2.0,15.27,11111222 
TABS,ioos:station:wmo:42049:1,2002-01-02T22:00:00Z,28.3507,-96.0058,-2.0,15.27,11111222 
TABS,ioos:station:wmo:42049:1,2002-01-02T22:30:00Z,28.3507,-96.0058,-2.0,15.37,11111222 
TABS,ioos:station:wmo:42049:1,2002-01-02T23:00:00Z,28.3507,-96.0058,-2.0,15.43,11111222 
TABS,ioos:station:wmo:42049:1,2002-01-02T23:30:00Z,28.3507,-96.0058,-2.0,15.46,11111222 
TABS,ioos:station:wmo:42049:1,2002-01-03T00:00:00Z,28.3507,-96.0058,-2.0,15.1,11111222 
TABS,ioos:station:wmo:42049:1,2002-01-03T00:30:00Z,28.3507,-96.0058,-2.0,15.26,11111222 
TABS,ioos:station:wmo:42049:1,2002-01-03T01:00:00Z,28.3507,-96.0058,-2.0,15.34,11111222 
TABS,ioos:station:wmo:42049:1,2002-01-03T01:30:00Z,28.3507,-96.0058,-2.0,15.32,11111222 
TABS,ioos:station:wmo:42049:1,2002-01-03T02:00:00Z,28.3507,-96.0058,-2.0,15.33,11111222 
TABS,ioos:station:wmo:42049:1,2002-01-03T02:30:00Z,28.3507,-96.0058,-2.0,15.46,11111222 
TABS,ioos:station:wmo:42049:1,2002-01-03T03:00:00Z,28.3507,-96.0058,-2.0,15.5,11111222 
TABS,ioos:station:wmo:42049:1,2002-01-03T03:30:00Z,28.3507,-96.0058,-2.0,15.53,11111222 
TABS,ioos:station:wmo:42049:1,2002-01-03T04:00:00Z,28.3507,-96.0058,-2.0,15.54,11111222 
TABS,ioos:station:wmo:42049:1,2002-01-03T04:30:00Z,28.3507,-96.0058,-2.0,15.57,11111222 
TABS,ioos:station:wmo:42049:1,2002-01-03T05:00:00Z,28.3507,-96.0058,-2.0,15.37,11111222 
TABS,ioos:station:wmo:42049:1,2002-01-03T05:30:00Z,28.3507,-96.0058,-2.0,15.02,11111222 
TABS,ioos:station:wmo:42049:1,2002-01-03T06:00:00Z,28.3507,-96.0058,-2.0,15.09,11111222 
TABS,ioos:station:wmo:42049:1,2002-01-03T06:30:00Z,28.3507,-96.0058,-2.0,15.19,11111222 
TABS,ioos:station:wmo:42049:1,2002-01-03T07:00:00Z,28.3507,-96.0058,-2.0,15.1,11111222 
TABS,ioos:station:wmo:42049:1,2002-01-03T07:30:00Z,28.3507,-96.0058,-2.0,15.29,11111222 
TABS,ioos:station:wmo:42049:1,2002-01-03T08:00:00Z,28.3507,-96.0058,-2.0,15.47,11111222 
TABS,ioos:station:wmo:42049:1,2002-01-03T08:30:00Z,28.3507,-96.0058,-2.0,14.86,11111222 
TABS,ioos:station:wmo:42049:1,2002-01-03T09:00:00Z,28.3507,-96.0058,-2.0,14.8,11111222 
TABS,ioos:station:wmo:42049:1,2002-01-03T09:30:00Z,28.3507,-96.0058,-2.0,15.03,11111222 
TABS,ioos:station:wmo:42049:1,2002-01-03T10:00:00Z,28.3507,-96.0058,-2.0,15.13,11111222 
TABS,ioos:station:wmo:42049:1,2002-01-03T10:30:00Z,28.3507,-96.0058,-2.0,15.24,11111222 
TABS,ioos:station:wmo:42049:1,2002-01-03T11:00:00Z,28.3507,-96.0058,-2.0,15.39,11111222 
TABS,ioos:station:wmo:42049:1,2002-01-03T11:30:00Z,28.3507,-96.0058,-2.0,15.5,11111222 
TABS,ioos:station:wmo:42049:1,2002-01-03T12:00:00Z,28.3507,-96.0058,-2.0,15.27,11111222 
TABS,ioos:station:wmo:42049:1,2002-01-03T12:30:00Z,28.3507,-96.0058,-2.0,15.22,11111222 
TABS,ioos:station:wmo:42049:1,2002-01-03T13:00:00Z,28.3507,-96.0058,-2.0,15.03,11111222 
TABS,ioos:station:wmo:42049:1,2002-01-03T13:30:00Z,28.3507,-96.0058,-2.0,14.96,11111222 
TABS,ioos:station:wmo:42049:1,2002-01-03T14:00:00Z,28.3507,-96.0058,-2.0,15.11,11111222 
TABS,ioos:station:wmo:42049:1,2002-01-03T14:30:00Z,28.3507,-96.0058,-2.0,14.81,11111222 
TABS,ioos:station:wmo:42049:1,2002-01-03T15:00:00Z,28.3507,-96.0058,-2.0,14.98,11111222 
TABS,ioos:station:wmo:42049:1,2002-01-03T15:30:00Z,28.3507,-96.0058,-2.0,15.15,11111222 
TABS,ioos:station:wmo:42049:1,2002-01-03T16:00:00Z,28.3507,-96.0058,-2.0,15.31,11111222 
TABS,ioos:station:wmo:42049:1,2002-01-03T16:30:00Z,28.3507,-96.0058,-2.0,15.03,11111222 
TABS,ioos:station:wmo:42049:1,2002-01-03T17:00:00Z,28.3507,-96.0058,-2.0,15.23,11111222 
TABS,ioos:station:wmo:42049:1,2002-01-03T17:30:00Z,28.3507,-96.0058,-2.0,14.66,11111222 
TABS,ioos:station:wmo:42049:1,2002-01-03T18:00:00Z,28.3507,-96.0058,-2.0,14.84,11111222 
TABS,ioos:station:wmo:42049:1,2002-01-03T18:30:00Z,28.3507,-96.0058,-2.0,14.84,11111222 
TABS,ioos:station:wmo:42049:1,2002-01-03T19:00:00Z,28.3507,-96.0058,-2.0,14.9,11111222 
TABS,ioos:station:wmo:42049:1,2002-01-03T19:30:00Z,28.3507,-96.0058,-2.0,15.04,11111222 
TABS,ioos:station:wmo:42049:1,2002-01-03T20:00:00Z,28.3507,-96.0058,-2.0,15.2,11111222 
TABS,ioos:station:wmo:42049:1,2002-01-03T20:30:00Z,28.3507,-96.0058,-2.0,14.88,11111222 
TABS,ioos:station:wmo:42049:1,2002-01-03T21:00:00Z,28.3507,-96.0058,-2.0,14.79,11111222 
TABS,ioos:station:wmo:42049:1,2002-01-03T21:30:00Z,28.3507,-96.0058,-2.0,14.9,11111222 
TABS,ioos:station:wmo:42049:1,2002-01-03T22:00:00Z,28.3507,-96.0058,-2.0,14.65,11111222 
TABS,ioos:station:wmo:42049:1,2002-01-03T22:30:00Z,28.3507,-96.0058,-2.0,14.62,11111222 
TABS,ioos:station:wmo:42049:1,2002-01-03T23:00:00Z,28.3507,-96.0058,-2.0,14.72,11111222 
TABS,ioos:station:wmo:42049:1,2002-01-03T23:30:00Z,28.3507,-96.0058,-2.0,14.85,11111222 
TABS,ioos:station:wmo:42049:1,2002-01-04T00:00:00Z,28.3507,-96.0058,-2.0,14.94,11111222 
TABS,ioos:station:wmo:42049:1,2002-01-04T00:30:00Z,28.3507,-96.0058,-2.0,15.02,11111222 
TABS,ioos:station:wmo:42049:1,2002-01-04T01:00:00Z,28.3507,-96.0058,-2.0,15.13,11111222 
TABS,ioos:station:wmo:42049:1,2002-01-04T01:30:00Z,28.3507,-96.0058,-2.0,15.19,11111222 
TABS,ioos:station:wmo:42049:1,2002-01-04T02:00:00Z,28.3507,-96.0058,-2.0,15.26,11111222 
TABS,ioos:station:wmo:42049:1,2002-01-04T02:30:00Z,28.3507,-96.0058,-2.0,15.27,11111222 
TABS,ioos:station:wmo:42049:1,2002-01-04T03:00:00Z,28.3507,-96.0058,-2.0,15.27,11111222 
TABS,ioos:station:wmo:42049:1,2002-01-04T03:30:00Z,28.3507,-96.0058,-2.0,15.29,11111222 
TABS,ioos:station:wmo:42049:1,2002-01-04T04:00:00Z,28.3507,-96.0058,-2.0,14.72,11111222 
TABS,ioos:station:wmo:42049:1,2002-01-04T04:30:00Z,28.3507,-96.0058,-2.0,14.75,11111222 
TABS,ioos:station:wmo:42049:1,2002-01-04T05:00:00Z,28.3507,-96.0058,-2.0,14.74,11111222 
TABS,ioos:station:wmo:42049:1,2002-01-04T05:30:00Z,28.3507,-96.0058,-2.0,14.79,11111222 
TABS,ioos:station:wmo:42049:1,2002-01-04T06:00:00Z,28.3507,-96.0058,-2.0,14.83,11111222 
TABS,ioos:station:wmo:42049:1,2002-01-04T06:30:00Z,28.3507,-96.0058,-2.0,14.49,11111222 
TABS,ioos:station:wmo:42049:1,2002-01-04T07:00:00Z,28.3507,-96.0058,-2.0,14.51,11111222 
TABS,ioos:station:wmo:42049:1,2002-01-04T07:30:00Z,28.3507,-96.0058,-2.0,14.55,11111222 
TABS,ioos:station:wmo:42049:1,2002-01-04T08:00:00Z,28.3507,-96.0058,-2.0,14.54,11111222 
TABS,ioos:station:wmo:42049:1,2002-01-04T08:30:00Z,28.3507,-96.0058,-2.0,14.45,11111222 
TABS,ioos:station:wmo:42049:1,2002-01-04T09:00:00Z,28.3507,-96.0058,-2.0,14.43,11111222 
TABS,ioos:station:wmo:42049:1,2002-01-04T09:30:00Z,28.3507,-96.0058,-2.0,14.34,11111222 
TABS,ioos:station:wmo:42049:1,2002-01-04T10:00:00Z,28.3507,-96.0058,-2.0,14.56,11111222 
TABS,ioos:station:wmo:42049:1,2002-01-04T10:30:00Z,28.3507,-96.0058,-2.0,14.68,11111222 
TABS,ioos:station:wmo:42049:1,2002-01-04T11:00:00Z,28.3507,-96.0058,-2.0,14.46,11111222 
TABS,ioos:station:wmo:42049:1,2002-01-04T11:30:00Z,28.3507,-96.0058,-2.0,14.59,11111222 
TABS,ioos:station:wmo:42049:1,2002-01-04T12:00:00Z,28.3507,-96.0058,-2.0,14.73,11111222 
TABS,ioos:station:wmo:42049:1,2002-01-04T12:30:00Z,28.3507,-96.0058,-2.0,14.87,11111222 
TABS,ioos:station:wmo:42049:1,2002-01-04T13:00:00Z,28.3507,-96.0058,-2.0,15.08,11111222 
TABS,ioos:station:wmo:42049:1,2002-01-04T13:30:00Z,28.3507,-96.0058,-2.0,15.14,11111222 
TABS,ioos:station:wmo:42049:1,2002-01-04T14:00:00Z,28.3507,-96.0058,-2.0,15.18,11111222 
TABS,ioos:station:wmo:42049:1,2002-01-04T14:30:00Z,28.3507,-96.0058,-2.0,15.32,11111222 
TABS,ioos:station:wmo:42049:1,2002-01-04T15:00:00Z,28.3507,-96.0058,-2.0,15.35,11111222 
TABS,ioos:station:wmo:42049:1,2002-01-04T15:30:00Z,28.3507,-96.0058,-2.0,15.45,11111222 
TABS,ioos:station:wmo:42049:1,2002-01-04T16:00:00Z,28.3507,-96.0058,-2.0,15.44,11111222 
TABS,ioos:station:wmo:42049:1,2002-01-04T16:30:00Z,28.3507,-96.0058,-2.0,15.4,11111222 
TABS,ioos:station:wmo:42049:1,2002-01-04T17:00:00Z,28.3507,-96.0058,-2.0,15.33,11111222 
TABS,ioos:station:wmo:42049:1,2002-01-04T17:30:00Z,28.3507,-96.0058,-2.0,15.31,11111222 
TABS,ioos:station:wmo:42049:1,2002-01-04T18:30:00Z,28.3507,-96.0058,-2.0,14.88,11111222 
TABS,ioos:station:wmo:42049:1,2002-01-04T19:00:00Z,28.3507,-96.0058,-2.0,14.8,11111222 
TABS,ioos:station:wmo:42049:1,2002-01-04T19:30:00Z,28.3507,-96.0058,-2.0,14.86,11111222 
TABS,ioos:station:wmo:42049:1,2002-01-04T20:00:00Z,28.3507,-96.0058,-2.0,14.85,11111222 
TABS,ioos:station:wmo:42049:1,2002-01-04T20:30:00Z,28.3507,-96.0058,-2.0,14.68,11111222 
TABS,ioos:station:wmo:42049:1,2002-01-04T21:00:00Z,28.3507,-96.0058,-2.0,14.63,11111222 
TABS,ioos:station:wmo:42049:1,2002-01-04T21:30:00Z,28.3507,-96.0058,-2.0,14.61,11111222 
TABS,ioos:station:wmo:42049:1,2002-01-04T22:00:00Z,28.3507,-96.0058,-2.0,14.68,11111222 
TABS,ioos:station:wmo:42049:1,2002-01-04T22:30:00Z,28.3507,-96.0058,-2.0,14.64,11111222 
TABS,ioos:station:wmo:42049:1,2002-01-04T23:00:00Z,28.3507,-96.0058,-2.0,14.68,11111222 
TABS,ioos:station:wmo:42049:1,2002-01-04T23:30:00Z,28.3507,-96.0058,-2.0,14.69,11111222 
TABS,ioos:station:wmo:42049:1,2002-01-05T00:00:00Z,28.3507,-96.0058,-2.0,14.75,11111222 
TABS,ioos:station:wmo:42049:1,2002-01-05T00:30:00Z,28.3507,-96.0058,-2.0,14.8,11111222 
TABS,ioos:station:wmo:42049:1,2002-01-05T01:00:00Z,28.3507,-96.0058,-2.0,14.84,11111222 
TABS,ioos:station:wmo:42049:1,2002-01-05T01:30:00Z,28.3507,-96.0058,-2.0,14.85,11111222 
TABS,ioos:station:wmo:42049:1,2002-01-05T02:00:00Z,28.3507,-96.0058,-2.0,14.83,11111222 
TABS,ioos:station:wmo:42049:1,2002-01-05T02:30:00Z,28.3507,-96.0058,-2.0,14.78,11111222 
TABS,ioos:station:wmo:42049:1,2002-01-05T03:00:00Z,28.3507,-96.0058,-2.0,14.81,11111222 
TABS,ioos:station:wmo:42049:1,2002-01-05T03:30:00Z,28.3507,-96.0058,-2.0,14.89,11111222 
TABS,ioos:station:wmo:42049:1,2002-01-05T04:00:00Z,28.3507,-96.0058,-2.0,15.23,11111222 
TABS,ioos:station:wmo:42049:1,2002-01-05T04:30:00Z,28.3507,-96.0058,-2.0,15.03,11111222 
TABS,ioos:station:wmo:42049:1,2002-01-05T05:00:00Z,28.3507,-96.0058,-2.0,15.06,11111222 
TABS,ioos:station:wmo:42049:1,2002-01-05T05:30:00Z,28.3507,-96.0058,-2.0,14.84,11111222 
TABS,ioos:station:wmo:42049:1,2002-01-05T06:00:00Z,28.3507,-96.0058,-2.0,14.94,11111222 
TABS,ioos:station:wmo:42049:1,2002-01-05T06:30:00Z,28.3507,-96.0058,-2.0,15.4,11111222 
TABS,ioos:station:wmo:42049:1,2002-01-05T07:00:00Z,28.3507,-96.0058,-2.0,15.37,11111222 
TABS,ioos:station:wmo:42049:1,2002-01-05T07:30:00Z,28.3507,-96.0058,-2.0,15.37,11111222 
TABS,ioos:station:wmo:42049:1,2002-01-05T08:00:00Z,28.3507,-96.0058,-2.0,15.44,11111222 
TABS,ioos:station:wmo:42049:1,2002-01-05T08:30:00Z,28.3507,-96.0058,-2.0,15.49,11111222 
TABS,ioos:station:wmo:42049:1,2002-01-05T09:00:00Z,28.3507,-96.0058,-2.0,15.57,11111222 
TABS,ioos:station:wmo:42049:1,2002-01-05T09:30:00Z,28.3507,-96.0058,-2.0,15.67,11111222 
TABS,ioos:station:wmo:42049:1,2002-01-05T10:00:00Z,28.3507,-96.0058,-2.0,15.73,11111222 
TABS,ioos:station:wmo:42049:1,2002-01-05T10:30:00Z,28.3507,-96.0058,-2.0,15.77,11111222 
TABS,ioos:station:wmo:42049:1,2002-01-05T11:00:00Z,28.3507,-96.0058,-2.0,15.81,11111222 
TABS,ioos:station:wmo:42049:1,2002-01-05T11:30:00Z,28.3507,-96.0058,-2.0,15.87,11111222 
TABS,ioos:station:wmo:42049:1,2002-01-05T12:00:00Z,28.3507,-96.0058,-2.0,16.01,11111222 
TABS,ioos:station:wmo:42049:1,2002-01-05T12:30:00Z,28.3507,-96.0058,-2.0,16.03,11111222 
TABS,ioos:station:wmo:42049:1,2002-01-05T13:00:00Z,28.3507,-96.0058,-2.0,16.05,11111222 
TABS,ioos:station:wmo:42049:1,2002-01-05T13:30:00Z,28.3507,-96.0058,-2.0,16.03,11111222 
TABS,ioos:station:wmo:42049:1,2002-01-05T14:00:00Z,28.3507,-96.0058,-2.0,16.01,11111222 
TABS,ioos:station:wmo:42049:1,2002-01-05T14:30:00Z,28.3507,-96.0058,-2.0,15.97,11111222 
TABS,ioos:station:wmo:42049:1,2002-01-05T15:00:00Z,28.3507,-96.0058,-2.0,15.64,11111222 
TABS,ioos:station:wmo:42049:1,2002-01-05T15:30:00Z,28.3507,-96.0058,-2.0,15.35,11111222 
TABS,ioos:station:wmo:42049:1,2002-01-05T16:00:00Z,28.3507,-96.0058,-2.0,15.17,11111222 
TABS,ioos:station:wmo:42049:1,2002-01-05T16:30:00Z,28.3507,-96.0058,-2.0,15.02,11111222 
TABS,ioos:station:wmo:42049:1,2002-01-05T17:00:00Z,28.3507,-96.0058,-2.0,15.01,11111222 
TABS,ioos:station:wmo:42049:1,2002-01-05T17:30:00Z,28.3507,-96.0058,-2.0,14.98,11111222 
TABS,ioos:station:wmo:42049:1,2002-01-05T18:00:00Z,28.3507,-96.0058,-2.0,14.94,11111222 
TABS,ioos:station:wmo:42049:1,2002-01-05T18:30:00Z,28.3507,-96.0058,-2.0,14.93,11111222 
TABS,ioos:station:wmo:42049:1,2002-01-05T19:00:00Z,28.3507,-96.0058,-2.0,14.94,11111222 
TABS,ioos:station:wmo:42049:1,2002-01-05T19:30:00Z,28.3507,-96.0058,-2.0,14.94,11111222 
TABS,ioos:station:wmo:42049:1,2002-01-05T20:00:00Z,28.3507,-96.0058,-2.0,14.99,11111222 
TABS,ioos:station:wmo:42049:1,2002-01-05T20:30:00Z,28.3507,-96.0058,-2.0,14.99,11111222 
TABS,ioos:station:wmo:42049:1,2002-01-05T21:00:00Z,28.3507,-96.0058,-2.0,14.98,11111222 
TABS,ioos:station:wmo:42049:1,2002-01-05T21:30:00Z,28.3507,-96.0058,-2.0,14.96,11111222 
TABS,ioos:station:wmo:42049:1,2002-01-05T22:00:00Z,28.3507,-96.0058,-2.0,14.96,11111222 
TABS,ioos:station:wmo:42049:1,2002-01-05T22:30:00Z,28.3507,-96.0058,-2.0,14.98,11111222 
TABS,ioos:station:wmo:42049:1,2002-01-05T23:00:00Z,28.3507,-96.0058,-2.0,14.98,11111222 
TABS,ioos:station:wmo:42049:1,2002-01-05T23:30:00Z,28.3507,-96.0058,-2.0,14.96,11111222 
TABS,ioos:station:wmo:42049:1,2002-01-06T00:00:00Z,28.3507,-96.0058,-2.0,14.98,11111222 
TABS,ioos:station:wmo:42049:1,2002-01-06T00:30:00Z,28.3507,-96.0058,-2.0,14.99,11111222 
TABS,ioos:station:wmo:42049:1,2002-01-06T01:00:00Z,28.3507,-96.0058,-2.0,14.98,11111222 
TABS,ioos:station:wmo:42049:1,2002-01-06T01:30:00Z,28.3507,-96.0058,-2.0,14.96,11111222 
TABS,ioos:station:wmo:42049:1,2002-01-06T02:00:00Z,28.3507,-96.0058,-2.0,14.99,11111222 
TABS,ioos:station:wmo:42049:1,2002-01-06T02:30:00Z,28.3507,-96.0058,-2.0,14.89,11111222 
TABS,ioos:station:wmo:42049:1,2002-01-06T03:00:00Z,28.3507,-96.0058,-2.0,14.94,11111222 
TABS,ioos:station:wmo:42049:1,2002-01-06T03:30:00Z,28.3507,-96.0058,-2.0,14.71,11111222 
TABS,ioos:station:wmo:42049:1,2002-01-06T04:00:00Z,28.3507,-96.0058,-2.0,14.64,11111222 
TABS,ioos:station:wmo:42049:1,2002-01-06T04:30:00Z,28.3507,-96.0058,-2.0,14.64,11111222 
TABS,ioos:station:wmo:42049:1,2002-01-06T05:00:00Z,28.3507,-96.0058,-2.0,14.22,11111222 
TABS,ioos:station:wmo:42049:1,2002-01-06T05:30:00Z,28.3507,-96.0058,-2.0,14.17,11111222 
TABS,ioos:station:wmo:42049:1,2002-01-06T06:00:00Z,28.3507,-96.0058,-2.0,14.23,11111222 
TABS,ioos:station:wmo:42049:1,2002-01-06T06:30:00Z,28.3507,-96.0058,-2.0,14.29,11111222 
TABS,ioos:station:wmo:42049:1,2002-01-06T07:00:00Z,28.3507,-96.0058,-2.0,14.23,11111222 
TABS,ioos:station:wmo:42049:1,2002-01-06T07:30:00Z,28.3507,-96.0058,-2.0,14.19,11111222 
TABS,ioos:station:wmo:42049:1,2002-01-06T08:00:00Z,28.3507,-96.0058,-2.0,14.11,11111222 
TABS,ioos:station:wmo:42049:1,2002-01-06T08:30:00Z,28.3507,-96.0058,-2.0,14.09,11111222 
TABS,ioos:station:wmo:42049:1,2002-01-06T09:00:00Z,28.3507,-96.0058,-2.0,14.13,11111222 
TABS,ioos:station:wmo:42049:1,2002-01-06T09:30:00Z,28.3507,-96.0058,-2.0,14.14,11111222 
TABS,ioos:station:wmo:42049:1,2002-01-06T10:00:00Z,28.3507,-96.0058,-2.0,14.05,11111222 
TABS,ioos:station:wmo:42049:1,2002-01-06T10:30:00Z,28.3507,-96.0058,-2.0,14.05,11111222 
TABS,ioos:station:wmo:42049:1,2002-01-06T11:00:00Z,28.3507,-96.0058,-2.0,14.08,11111222 
TABS,ioos:station:wmo:42049:1,2002-01-06T11:30:00Z,28.3507,-96.0058,-2.0,14.09,11111222 
TABS,ioos:station:wmo:42049:1,2002-01-06T12:00:00Z,28.3507,-96.0058,-2.0,14.08,11111222 
TABS,ioos:station:wmo:42049:1,2002-01-06T12:30:00Z,28.3507,-96.0058,-2.0,14.06,11111222 
TABS,ioos:station:wmo:42049:1,2002-01-06T13:00:00Z,28.3507,-96.0058,-2.0,14.02,11111222 
TABS,ioos:station:wmo:42049:1,2002-01-06T13:30:00Z,28.3507,-96.0058,-2.0,13.99,11111222 
TABS,ioos:station:wmo:42049:1,2002-01-06T14:00:00Z,28.3507,-96.0058,-2.0,13.93,11111222 
TABS,ioos:station:wmo:42049:1,2002-01-06T14:30:00Z,28.3507,-96.0058,-2.0,13.87,11111222 
TABS,ioos:station:wmo:42049:1,2002-01-06T15:00:00Z,28.3507,-96.0058,-2.0,13.8,11111222 